アトラス彗星

P/2019 M2 ( ATLAS )

English version
Home page
Updated on June 14, 2021

---------------------------------------------------------------------

・ プロフィール

発見日 2019年6月29日
発見光度 18.3等
発見者 Asteroid Terrestrial-Impact Last Alert System (ATLAS) search program

・ 写真集

・ 軌道要素

Epoch 2019 June 6.0 TT = JDT 2458640.5
T 2019 June 22.66929 TT                                 Williams
q   1.0633971            (2000.0)            P               Q
n   0.18716681     Peri.  332.51896     +0.18415989     +0.96834379
a   3.0267983      Node   307.60593     -0.85823893     +0.07486034
e   0.6486726      Incl.   12.28084     -0.47907315     +0.23813070
P   5.27
From 282 observations 2019 June 29-Nov. 2, mean residual 0".4.

・ 光度変化

        m1 = 19.8 + 5 logΔ + 10.0 log r(t - 85)

---------------------------------------------------------------------

軌道要素はM.P.E.C. 2019-X94に掲載されたものです。
光度グラフはComet for Windowsで作成したものです。

---------------------------------------------------------------------

Copyright(C) Seiichi Yoshida (comet@aerith.net). All rights reserved.